EW4858 Weather Reports


Display with metric or nautical units.
time (UTC)temp
F
wind
direction
speed
MPH
gust
MPH
rain 1hr
in
rain 24hr
in
rain mn
in
humidity
%
barometer
mb
20260508203106 80 355 4.0 11.0 0.00 0.00 0.00 52 1010.0
20260508201602 79 46 0.0 7.0 0.00 0.00 0.00 51 1010.0
20260508200053 79 46 4.0 8.0 0.00 0.00 0.00 52 1010.2
20260508194550 77 98 1.0 8.0 0.00 0.00 0.00 55 1010.4
20260508193046 76 355 0.0 6.0 0.00 0.00 0.00 59 1010.7
20260508191543 75 322 3.0 8.0 0.00 0.00 0.00 61 1010.9
20260508190038 74 322 3.0 5.0 0.00 0.00 0.00 64 1011.0
20260508184535 72 254 1.0 5.0 0.00 0.00 0.00 67 1011.2
20260508183035 70 5 0.0 6.0 0.00 0.00 0.00 69 1011.4
20260508181533 69 53 0.0 5.0 0.00 0.00 0.00 72 1011.6
20260508180022 68 56 1.0 6.0 0.00 0.00 0.00 73 1011.8
20260508174518 67 64 0.0 7.0 0.00 0.00 0.00 76 1011.8
20260508173018 66 119 0.0 8.0 0.00 0.00 0.00 78 1011.9
20260508171523 65 5 3.0 6.0 0.00 0.00 0.00 79 1011.9
20260508170012 64 13 0.0 4.0 0.00 0.00 0.00 81 1012.0
20260508164507 63 196 0.0 3.0 0.00 0.00 0.00 84 1012.1
20260508163007 62 93 0.0 5.0 0.00 0.00 0.00 85 1012.2
20260508161502 61 46 0.0 4.0 0.00 0.00 0.00 86 1012.2
20260508160002 61 57 0.0 3.0 0.00 0.00 0.00 87 1012.3
20260508154504 60 275 0.0 0.0 0.00 0.00 0.00 87 1012.4
20260508153101 60 275 0.0 0.0 0.00 0.00 0.00 88 1012.4
20260508151601 60 275 0.0 0.0 0.00 0.00 0.00 88 1012.4
20260508150059 60 275 0.0 0.0 0.00 0.00 0.00 89 1012.5
20260508144558 59 275 0.0 3.0 0.00 0.00 0.00 89 1012.4
20260508143103 59 261 0.0 0.0 0.00 0.00 0.00 89 1012.3
20260508141616 59 261 0.0 3.0 0.00 0.00 0.00 90 1012.2
20260508140058 59 263 1.0 4.0 0.00 0.00 0.00 90 1012.2
20260508134617 59 263 0.0 0.0 0.00 0.00 0.00 90 1012.0
20260508133101 59 263 0.0 5.0 0.00 0.00 0.00 90 1011.9
20260508131557 59 258 1.0 5.0 0.00 0.00 0.00 90 1011.8
20260508130054 59 247 2.0 4.0 0.00 0.00 0.00 89 1011.8
20260508124600 59 288 0.0 0.0 0.00 0.00 0.00 89 1011.7
20260508123054 59 288 0.0 4.0 0.00 0.00 0.00 89 1011.5
20260508121600 59 263 2.0 4.0 0.00 0.00 0.00 89 1011.5
20260508120052 59 278 0.0 5.0 0.00 0.00 0.00 89 1011.5
20260508114551 59 284 0.0 5.0 0.00 0.00 0.00 89 1011.5
20260508113105 60 249 2.0 6.0 0.00 0.00 0.00 89 1011.5
20260508111556 60 256 1.0 5.0 0.00 0.00 0.00 89 1011.5
20260508110054 60 256 2.0 5.0 0.00 0.00 0.00 89 1011.5
20260508104551 60 303 3.0 5.0 0.00 0.00 0.00 89 1011.6
20260508103048 60 304 2.0 5.0 0.00 0.00 0.00 89 1011.8
20260508101549 60 305 0.0 0.0 0.00 0.00 0.00 89 1011.9
20260508100046 60 305 0.0 3.0 0.00 0.00 0.00 89 1011.8
20260508094545 60 307 0.0 4.0 0.00 0.00 0.00 88 1011.7
20260508093053 60 294 0.0 4.0 0.00 0.00 0.00 88 1011.6
20260508091550 60 259 1.0 4.0 0.00 0.00 0.00 88 1011.7
20260508090044 60 259 0.0 3.0 0.00 0.00 0.00 88 1011.7
20260508084541 60 216 0.0 5.0 0.00 0.00 0.00 88 1011.8
20260508083053 61 223 0.0 3.0 0.00 0.00 0.00 87 1011.9
20260508081538 61 223 1.0 5.0 0.00 0.00 0.00 87 1012.1
20260508080041 61 281 0.0 0.0 0.00 0.00 0.00 87 1012.3
20260508074546 61 267 0.0 4.0 0.00 0.00 0.00 87 1012.3
20260508073034 61 266 0.0 3.0 0.00 0.00 0.00 87 1012.3
20260508071532 61 266 0.0 5.0 0.00 0.00 0.00 87 1012.4
20260508070028 61 255 0.0 5.0 0.00 0.00 0.00 87 1012.5
20260508064527 61 255 1.0 5.0 0.00 0.00 0.00 87 1012.5
20260508063028 61 5 0.0 4.0 0.00 0.00 0.00 87 1012.6
20260508061527 61 5 0.0 3.0 0.00 0.00 0.00 87 1012.6
20260508060025 61 5 0.0 1.0 0.00 0.00 0.00 87 1012.6
20260508054525 61 5 0.0 2.0 0.00 0.00 0.00 87 1012.5
20260508053027 61 5 0.0 2.0 0.00 0.00 0.00 87 1012.6
20260508051527 61 5 0.0 4.0 0.00 0.00 0.00 87 1012.6
20260508050024 61 360 1.0 4.0 0.00 0.00 0.00 87 1012.6
20260508044523 61 355 1.0 4.0 0.00 0.00 0.00 86 1012.4
20260508043021 61 355 0.0 3.0 0.00 0.00 0.00 86 1012.3
20260508041521 61 355 2.0 4.0 0.00 0.00 0.00 85 1012.1
20260508040019 62 344 0.0 4.0 0.00 0.00 0.00 84 1011.8
20260508034522 62 355 3.0 5.0 0.00 0.00 0.00 82 1011.7
20260508033019 63 355 3.0 5.0 0.00 0.00 0.00 80 1011.6
20260508031518 64 26 2.0 6.0 0.00 0.00 0.00 79 1011.3
20260508030018 65 355 2.0 6.0 0.00 0.00 0.00 77 1011.0
20260508024518 66 341 2.0 7.0 0.00 0.00 0.00 75 1010.8
20260508023016 67 5 3.0 7.0 0.00 0.00 0.00 73 1010.5
20260508021524 68 21 3.0 7.0 0.00 0.00 0.00 71 1010.3
20260508020016 69 360 3.0 5.0 0.00 0.00 0.00 70 1010.2
20260508014516 70 18 3.0 7.0 0.00 0.00 0.00 69 1010.2
20260508013024 70 5 4.0 7.0 0.00 0.00 0.00 68 1010.2
20260508011516 71 333 4.0 8.0 0.00 0.00 0.00 67 1010.1
20260508010016 71 26 6.0 9.0 0.00 0.00 0.00 67 1010.2
20260508004527 71 355 6.0 13.0 0.00 0.00 0.00 66 1010.1
20260508003013 73 34 6.0 11.0 0.00 0.00 0.00 63 1010.1
20260508001517 74 334 4.0 10.0 0.00 0.00 0.00 62 1009.9
20260508000012 74 13 3.0 10.0 0.00 0.00 0.00 62 1009.9
20260507234512 74 329 4.0 10.0 0.00 0.00 0.00 61 1009.9
20260507233020 75 65 3.0 11.0 0.00 0.00 0.00 60 1009.9
20260507231511 75 38 3.0 10.0 0.00 0.00 0.00 60 1009.9
20260507230010 74 350 3.0 10.0 0.00 0.00 0.00 61 1009.9
20260507224509 75 53 5.0 10.0 0.00 0.00 0.00 60 1010.0
20260507223010 75 40 5.0 10.0 0.00 0.00 0.00 59 1010.1
20260507221515 75 5 5.0 12.0 0.00 0.00 0.00 59 1010.1
20260507220005 76 55 4.0 12.0 0.00 0.00 0.00 59 1010.2
20260507214503 75 40 6.0 12.0 0.00 0.00 0.00 59 1010.4
20260507213002 75 51 3.0 12.0 0.00 0.00 0.00 60 1010.6
20260507211501 75 11 5.0 8.0 0.00 0.00 0.00 59 1010.6
20260507210100 75 52 6.0 12.0 0.00 0.00 0.00 60 1010.7
20260507204608 75 46 7.0 12.0 0.00 0.00 0.00 60 1010.8